This demonstration page uses our WeatherBlox Daily Observations layout. Learn more.

Left ArrowRight Arrow

47.50024, -111.30081

Hourly Observations for January 9, 2020

Temp ( °F °C ) Dew Point ( °F °C ) Humidity (%) Winds ( mph kmh ) Pressure ( in mb ) Visibility ( mi km ) Precip ( " mm )
12:25 am 00:25 Mostly Cloudy 12 -11.1 6 -14.4 77 77 N 7 11 29.96 1015 10 16 0.00 0.00
12:53 am 00:53 Cloudy 13 -10.6 7 -13.9 77 77 Calm 29.82 1010 10 16 0.00 0.00
1:53 am 01:53 Cloudy 14 -10 7 -13.9 73 73 NW 8 13 29.82 1010 10 16 0.00 0.00
2:53 am 02:53 Cloudy 14 -10 7 -13.9 73 73 NNW 7 11 29.85 1011 10 16 0.00 0.00
3:53 am 03:53 Cloudy 14 -10 7 -13.9 73 73 N 5 7 29.87 1012 10 16 0.00 0.00
4:53 am 04:53 Cloudy 14 -10 7 -13.9 73 73 N 5 7 29.89 1012 10 16 0.00 0.00
5:53 am 05:53 Cloudy 14 -10 7 -13.9 73 73 NNW 6 9 29.92 1013 10 16 0.00 0.00
6:40 am 06:40 Cloudy with Light Snow 13 -10.6 6 -14.4 74 74 NNW 9 15 30.06 1018 7 11 0.00 0.00
6:53 am 06:53 Cloudy with Light Snow 12 -11.1 5 -15 73 73 N 10 17 29.96 1015 7 11 0.00 0.00
7:53 am 07:53 Cloudy 11 -11.7 4 -15.6 73 73 NNW 12 19 29.99 1016 10 16 0.00 0.00
8:53 am 08:53 Cloudy 10 -12.2 3 -16.1 73 73 NNW 10 17 30.06 1018 8 13 0.00 0.00
9:53 am 09:53 Cloudy with Light Snow 10 -12.2 4 -15.6 76 76 NNW 10 17 30.09 1019 6 10 0.00 0.00
10:30 am 10:30 Cloudy with Light Snow 10 -12.2 4 -15.6 76 76 NNW 9 15 30.19 1022 3 4 0.00 0.00
10:53 am 10:53 Cloudy with Light Snow 11 -11.7 4 -15.6 73 73 NNW 10 17 30.12 1020 2 3 0.00 0.00
11:50 am 11:50 Cloudy with Light Snow 10 -12 3 -16 72 72 NNW 10 17 30.19 1022 2 2 0.00 0.00
11:53 am 11:53 Cloudy with Light Snow 10 -12.2 3 -16.1 73 73 NNW 10 17 30.11 1020 2 2 0.00 0.00
12:18 pm 12:18 Cloudy with Light Snow 10 -12.2 4 -15.6 76 76 NNW 8 13 30.18 1022 1 2 0.00 0.00
12:27 pm 12:27 Cloudy with Light Snow 10 -12.2 4 -15.6 76 76 NNW 9 15 30.18 1022 1 1 0.01 0.25
12:38 pm 12:38 Cloudy with Light Snow 11 -11.7 4 -15.6 73 73 NNW 9 15 30.17 1022 2 2 0.01 0.25
12:53 pm 12:53 Cloudy with Light Snow 11 -11.7 3 -16.1 70 70 NNW 9 15 30.10 1019 3 4 0.01 0.25
1:32 pm 13:32 Cloudy with Light Snow 11 -11.7 4 -15.6 73 73 NNW 10 17 30.17 1022 3 4 0.00 0.00
1:42 pm 13:42 Cloudy with Light Snow 11 -11.7 4 -15.6 73 73 N 10 17 30.17 1022 1 2 0.00 0.00
1:49 pm 13:49 Cloudy with Light Snow 10 -12 3 -16 72 72 N 10 17 30.18 1022 2 3 0.00 0.00
1:53 pm 13:53 Cloudy with Light Snow 11 -11.7 3 -16.1 70 70 NNW 9 15 30.10 1019 3 4 0.00 0.00
2:34 pm 14:34 Cloudy with Light Snow 10 -12.2 3 -16.1 73 73 N 6 9 30.18 1022 2 3 0.00 0.00
2:38 pm 14:38 Cloudy with Light Snow 10 -12.2 3 -16.1 73 73 N 6 9 30.18 1022 3 5 0.00 0.00
2:51 pm 14:51 Cloudy with Light Snow 10 -12 3 -16 72 72 N 6 9 30.19 1022 3 4 0.00 0.00
2:53 pm 14:53 Cloudy with Light Snow 11 -11.7 4 -15.6 73 73 N 6 9 30.11 1020 3 4 0.00 0.00
3:01 pm 15:01 Cloudy with Light Snow 11 -11.7 4 -15.6 73 73 N 7 11 30.19 1023 3 5 0.00 0.00
3:18 pm 15:18 Cloudy with Light Snow 11 -11.7 4 -15.6 73 73 N 7 11 30.20 1023 3 5 0.00 0.00
3:53 pm 15:53 Cloudy 11 -11.7 4 -15.6 73 73 N 7 11 30.14 1021 9 14 0.00 0.00
4:10 pm 16:10 Cloudy 11 -11.7 3 -16.1 70 70 N 6 9 30.23 1024 10 16 0.00 0.00
4:17 pm 16:17 Cloudy with Light Snow 11 -11.7 3 -16.1 70 70 N 7 11 30.25 1024 1 2 0.00 0.00
4:41 pm 16:41 Cloudy with Light Snow 10 -12.2 4 -15.6 76 76 NNE 6 9 30.25 1024 1 2 0.00 0.00
4:49 pm 16:49 Cloudy with Light Snow 10 -12 3 -16 72 72 N 5 7 30.26 1025 2 3 0.00 0.00
4:53 pm 16:53 Cloudy with Light Snow 10 -12.2 4 -15.6 76 76 NNE 3 6 30.18 1022 2 3 0.00 0.00
5:00 pm 17:00 Cloudy with Light Snow 10 -12.2 4 -15.6 76 76 NNE 3 6 30.26 1025 2 3 0.00 0.00
5:07 pm 17:07 Cloudy with Light Snow 9 -12.8 4 -15.6 80 80 NE 5 7 30.27 1025 3 4 0.00 0.00
5:14 pm 17:14 Cloudy with Light Snow 9 -12.8 4 -15.6 80 80 NE 5 7 30.28 1026 5 8 0.00 0.00
5:29 pm 17:29 Cloudy 8 -13.3 3 -16.1 80 80 NE 5 7 30.30 1026 8 13 0.00 0.00
5:49 pm 17:49 Cloudy 7 -14 1 -17 78 78 ENE 5 7 30.31 1027 10 16 0.00 0.00
5:53 pm 17:53 Mostly Cloudy 7 -13.9 2 -16.7 80 80 E 6 9 30.21 1023 10 16 0.00 0.00
6:33 pm 18:33 Cloudy 8 -13.3 3 -16.1 80 80 SE 6 9 30.31 1026 7 11 0.00 0.00
6:53 pm 18:53 Cloudy 8 -13.3 4 -15.6 83 83 ESE 6 9 30.22 1024 10 16 0.00 0.00
7:24 pm 19:24 Cloudy 9 -12.8 4 -15.6 80 80 Calm 30.31 1027 10 16 0.00 0.00
7:53 pm 19:53 Cloudy 7 -13.9 2 -16.7 80 80 NE 6 9 30.24 1024 9 14 0.00 0.00
8:44 pm 20:44 Cloudy with Light Snow 8 -13.3 3 -16.1 80 80 N 7 11 30.33 1027 2 3 0.00 0.00
8:51 pm 20:51 Cloudy with Light Snow 9 -13 3 -16 78 78 N 6 9 30.33 1027 2 3 0.01 0.25
8:53 pm 20:53 Cloudy with Light Snow 8 -13.3 4 -15.6 83 83 N 6 9 30.25 1025 2 3 0.01 0.25
9:00 pm 21:00 Cloudy with Light Snow 8 -13.3 4 -15.6 83 83 NNE 7 11 30.34 1028 2 3 0.00 0.00
9:10 pm 21:10 Cloudy with Light Snow 8 -13.3 3 -16.1 80 80 N 8 13 30.34 1028 2 2 0.00 0.00
9:22 pm 21:22 Cloudy with Light Snow 7 -13.9 3 -16.1 84 84 N 8 13 30.35 1028 2 3 0.00 0.00
9:34 pm 21:34 Cloudy with Light Snow 7 -13.9 2 -16.7 80 80 N 10 17 30.36 1028 2 3 0.00 0.00
9:48 pm 21:48 Cloudy with Light Snow 7 -14 1 -17 78 78 N 8 13 30.37 1029 5 8 0.00 0.00
9:53 pm 21:53 Cloudy 6 -14.4 2 -16.7 83 83 N 9 15 30.29 1026 7 11 0.00 0.00
10:53 pm 22:53 Cloudy with Light Snow 6 -14.4 0 -17.8 76 76 NNE 6 9 30.31 1026 5 8 0.00 0.00
11:16 pm 23:16 Cloudy with Light Snow 7 -13.9 1 -17.2 76 76 Calm 30.40 1030 2 3 0.00 0.00
11:19 pm 23:19 Cloudy with Light Snow 7 -13.9 1 -17.2 76 76 Calm 30.40 1030 1 2 0.00 0.00
11:37 pm 23:37 Cloudy with Light Snow 6 -14.4 1 -17.2 79 79 Calm 30.42 1030 2 3 0.01 0.25
11:46 pm 23:46 Cloudy with Light Snow 6 -14.4 1 -17.2 79 79 Calm 30.42 1030 2 3 0.01 0.25
11:53 pm 23:53 Cloudy with Light Snow 6 -14.4 1 -17.2 79 79 Calm 30.32 1027 3 4 0.01 0.25

Powered by AerisWeather